Location: Brunembert
(50.7122°N, 1.8935°E)
Time: 02:35:58
(UTC+00:00)

N. Korean satellite - Visible Passes

Search period start: 21 September 2021 00:00
Search period end: 01 October 2021 00:00
Orbit: 448 x 498 km, 97.3° (Epoch: 20 September)

Date Brightness Start Highest point End Pass type
(mag) Time Alt. Az. Time Alt. Az. Time Alt. Az.
22 Sep 8.0 04:55:02 10° NNE 04:58:24 42° E 05:01:47 10° S visible
23 Sep 9.4 04:27:43 10° NE 04:30:29 21° E 04:33:16 10° SE visible
24 Sep 10.1 04:01:27 10° ENE 04:02:29 11° E 04:03:30 10° ESE visible
25 Sep 7.4 05:04:52 10° NNE 05:08:21 55° E 05:11:53 10° S visible
26 Sep 9.0 04:37:24 10° NE 04:40:29 27° E 04:43:35 10° SSE visible
27 Sep 9.8 04:10:30 10° NE 04:12:29 14° E 04:14:29 10° SE visible
28 Sep 6.9 05:14:41 10° NNE 05:18:16 74° ESE 05:21:52 10° S visible
29 Sep 8.4 04:47:05 10° NNE 04:50:24 35° E 04:53:44 10° SSE visible
30 Sep 9.7 04:19:53 10° NE 04:22:26 18° E 04:24:59 10° SE visible
